sat.trackr.live / text

‹ back to catalog

STARLINK-31473

NORAD 59339 · 2024-057V

PAYLOAD ACTIVE UNKNOWN

§ Identity

Operator
Country
US
Launch date
2024-03-25
Launch site
AFETR
Launch vehicle
Mass (kg)
RCS (m²)

Purposes: comms

External: N2YO · Heavens-Above · Gunter

§ Orbital elements

Epoch: 2026-09-20T02:28:38.626176Z

Period
94.27 min
Inclination
43.0025°
Eccentricity
0.0000944
Mean motion
15.27556708 rev/d
Perigee alt
482.5 km
Apogee alt
483.8 km
Semi-major
6,861.3 km
B*
1.6663e-4
RAAN
168.9907°
Arg perigee
274.6369°
Mean anomaly
85.4374°
Rev number
13,957

§ Raw data

STARLINK-314731 59339U 24057V   26263.10322484  .00004323  00000+0  16663-3 0  99962 59339  43.0025 168.9907 0000944 274.6369  85.4374 15.27556708139571

JSON: /api/v1/satellites/59339 · /tle

For live sub-satellite position, see the globe view (requires WebGL).

§ Visibility from observer

Set your observer location to see the next 7 days of passes ≥ 10°. The values pass through the URL so the page stays shareable.

No JS? Fill the form by hand. The geolocation button needs JavaScript.